RAF3WC EGXC-EGXC

Flight info

Callsign RAF3WC
Flight time N/A
Altitude 40000
Route OTR DCT LEE DCT WTN DCT WAL DCT SWB DCT WIT
Aircraft F18S/M-SDFGRWY/S

Departure

Time 2026-04-11 21:54
Airport RAF Coningsby (EGXC)

Arrival

Time N/A
Airport RAF Coningsby (EGXC)
Time Latitude Longitude Altitude Speed Heading
2026-04-11 21:45 53.44654 -0.20142 22203 ft 419 kts 350°
2026-04-11 21:45 53.47485 -0.20515 24383 ft 395 kts 349°
2026-04-11 21:45 53.50124 -0.20827 26380 ft 362 kts 348°
2026-04-11 21:45 53.52503 -0.21055 28333 ft 322 kts 348°
2026-04-11 21:46 53.54686 -0.21217 29647 ft 305 kts 347°
2026-04-11 21:46 53.56053 -0.21295 30249 ft 287 kts 347°
2026-04-11 21:47 53.60528 -0.21975 24955 ft 163 kts 322°
2026-04-11 21:47 53.62433 -0.23246 17810 ft 132 kts 308°
2026-04-11 21:47 53.63214 -0.24036 14416 ft 152 kts 346°
2026-04-11 21:48 53.64267 -0.24305 11464 ft 152 kts 329°
2026-04-11 21:48 53.65240 -0.24819 9088 ft 133 kts 319°
2026-04-11 21:48 53.66067 -0.25317 6523 ft 125 kts 322°
2026-04-11 21:48 53.66920 -0.25680 3884 ft 126 kts 318°
2026-04-11 21:49 53.67545 -0.26043 2105 ft 145 kts 320°
2026-04-11 21:49 53.68453 -0.26844 495 ft 144 kts 322°
2026-04-11 21:49 53.69247 -0.27793 307 ft 153 kts 317°
2026-04-11 21:49 53.70301 -0.29016 1736 ft 214 kts 315°
2026-04-11 21:50 53.71547 -0.30692 3915 ft 235 kts 307°
2026-04-11 21:50 53.72659 -0.32684 6396 ft 249 kts 300°
2026-04-11 21:50 53.73860 -0.35580 6567 ft 330 kts 295°
2026-04-11 21:50 53.74943 -0.38759 9223 ft 313 kts 294°
2026-04-11 21:51 53.75914 -0.41954 11801 ft 301 kts 288°
2026-04-11 21:51 53.76398 -0.45394 12064 ft 292 kts 268°
2026-04-11 21:51 53.76660 -0.43388 8488 ft 288 kts 86°
2026-04-11 21:51 53.75565 -0.41183 8093 ft 290 kts 179°
2026-04-11 21:52 53.73370 -0.41770 7914 ft 365 kts 196°
2026-04-11 21:52 53.70576 -0.42357 7660 ft 440 kts 182°
2026-04-11 21:52 53.67312 -0.42073 7436 ft 497 kts 178°
2026-04-11 21:52 53.63736 -0.41364 7763 ft 531 kts 175°
2026-04-11 21:53 53.60032 -0.40271 8191 ft 551 kts 172°
2026-04-11 21:53 53.56183 -0.39105 8013 ft 570 kts 173°
2026-04-11 21:53 53.52224 -0.37946 7703 ft 581 kts 173°
2026-04-11 21:53 53.48235 -0.36759 7396 ft 584 kts 173°
2026-04-11 21:54 53.44230 -0.35544 6986 ft 585 kts 173°
2026-04-11 21:54 53.40227 -0.34316 6596 ft 586 kts 173°
2026-04-11 21:54 53.36220 -0.33092 5584 ft 588 kts 173°
2026-04-11 21:54 53.32222 -0.31940 2985 ft 550 kts 173°
2026-04-11 21:55 53.28905 -0.30956 2520 ft 436 kts 173°
2026-04-11 21:55 53.26090 -0.30098 2319 ft 378 kts 173°
2026-04-11 21:55 53.23664 -0.29412 1684 ft 332 kts 174°
2026-04-11 21:55 53.21480 -0.28914 1067 ft 300 kts 175°
2026-04-11 21:56 53.19520 -0.28538 728 ft 271 kts 175°
2026-04-11 21:56 53.17806 -0.28229 1106 ft 222 kts 178°
2026-04-11 21:56 53.16418 -0.28508 1283 ft 189 kts 194°
2026-04-11 21:56 53.15202 -0.28964 1295 ft 169 kts 192°
2026-04-11 21:57 53.14102 -0.29170 1266 ft 158 kts 184°
2026-04-11 21:57 53.12981 -0.29043 577 ft 181 kts 183°
2026-04-11 21:57 53.11561 -0.28795 532 ft 200 kts 172°
2026-04-11 21:57 53.10308 -0.28351 784 ft 171 kts 171°
2026-04-11 21:58 53.09184 -0.28137 900 ft 165 kts 182°
2026-04-11 21:58 53.08341 -0.27322 766 ft 152 kts 123°
2026-04-11 21:58 53.08105 -0.25628 631 ft 148 kts 99°
2026-04-11 21:58 53.08147 -0.24021 535 ft 116 kts 92°
2026-04-11 21:59 53.08228 -0.22718 424 ft 129 kts 92°
2026-04-11 21:59 53.08440 -0.21134 366 ft 149 kts 75°
2026-04-11 21:59 53.08775 -0.19541 181 ft 134 kts 85°
2026-04-11 21:59 53.09064 -0.18205 27 ft 112 kts 90°
2026-04-11 22:00 53.09059 -0.17234 26 ft 60 kts 99°